Location: Ripley
(48.3812°N, 115.4473°W)
Time: 09:18:01
(UTC+00:00)

CAS-6 - Pass Details

Date: 01 July 2022
Orbit: 613 x 634 km, 97.9° (Epoch: 14 August)

Event Time Altitude Azimuth Distance (km) Brightness Sun altitude
Exits shadow 05:26:29 18° 142° (SE) 1,561 ? -12.0°
Maximum altitude 05:29:34 52° 71° (ENE) 783 ? -12.3°
Drops below altitude 10° 05:33:48 10° 356° (N) 2,004 ? -12.7°
Sets 05:36:02 0° 351° (N) 2,912 ? -12.8°
